Regional Weather Roundup
Issued by NWS

Home | Current Version | Previous Version | Text Only | Print | Product List | Glossary Off
Versions: 1 2 3 4 5 6 7 8 9 10 11 12 13 14 15 16 17 18 19 20 21 22 23 24 25 26 27 28 29 30 31 32 33 34 35 36 37 38 39 40 41 42 43 44 45 46 47 48 49 50

000
ASUS43 KDTX 300010
RWRMI
MICHIGAN HOURLY REGIONAL WEATHER ROUNDUP
NATIONAL WEATHER SERVICE DETROIT/PONTIAC MI
800 PM EDT FRI AUG 29 2014

NOTE: "FAIR" INDICATES FEW OR NO CLOUDS BELOW 12,000 FEET WITH NO
SIGNIFICANT WEATHER AND/OR OBSTRUCTION TO VISIBILITY.

MIZ047>049-052>055-059>063-066>070-074>076-081>083-300100-
SOUTHEAST LOWER MICHIGAN

CITY           SKY/WX    TMP DP  RH WIND       PRES   REMARKS
ADRIAN         CLEAR     73  64  73 SE6       30.02F
6HR MIN TEMP:  73; 6HR MAX TEMP:  83;

ALMA           MOCLDY    72  65  80 SE5       29.97F
ANN ARBOR      PTCLDY    71  60  68 SE8       30.02F
BAD AXE        MOCLDY    68  57  67 S8        30.02F
6HR MIN TEMP:  68; 6HR MAX TEMP:  74;

DETROIT CITY   PTCLDY    73  54  51 SE9       30.04F
6HR MIN TEMP:  73; 6HR MAX TEMP:  78;

DETROIT        MOCLDY    73  59  61 E7        30.03F
6HR MIN TEMP:  71; 6HR MAX TEMP:  76;

FLINT          MOCLDY    73  54  51 SE9       30.00F
6HR MIN TEMP:  73; 6HR MAX TEMP:  77;

GROSSE ILE     CLEAR     72  61  68 E6        30.03S
HILLSDALE      PTCLDY    78  66  66 SE6       30.01S
6HR MIN TEMP:  78; 6HR MAX TEMP:  83;

HOWELL         MOCLDY    71  62  71 SE9       30.00F
6HR MIN TEMP:  71; 6HR MAX TEMP:  75;


CITY           SKY/WX    TMP DP  RH WIND       PRES   REMARKS
JACKSON        PTCLDY    75  64  68 SE9       30.00F
6HR MIN TEMP:  74; 6HR MAX TEMP:  81;

LAMBERTVILLE   CLEAR     73  63  68 E3        30.03S
LANSING        LGT RAIN  74  63  68 SE12      29.98F
6HR MIN TEMP:  72; 6HR MAX TEMP:  78; 6HR PCP: TRACE;

LAPEER         NOT AVBL
MASON          MOCLDY    72  64  76 SE7       29.99S
MONROE         CLEAR     72  63  73 SE8       30.02F
MT. CLEMENS    PTCLDY    69  56  62 SE10      30.03F
6HR MIN TEMP:  69; 6HR MAX TEMP:  74;

PONTIAC        MOCLDY    73  50  44 SE8       30.02F
6HR MIN TEMP:  72; 6HR MAX TEMP:  77;

PORT HOPE        N/A     70  56  61 SE7       30.00F
6HR MIN TEMP:  70; 6HR MAX TEMP:  73;

PORT HURON     PTCLDY    70  54  56 SE8       30.04F
TRI CITIES     MOCLDY    72  57  59 SE10      29.99F
6HR MIN TEMP:  72; 6HR MAX TEMP:  75; 6HR PCP: TRACE;

YPSILANTI      PTCLDY    74  60  61 SE9       30.03F
6HR MIN TEMP:  74; 6HR MAX TEMP:  82;

$$
MIZ043>046-050>051-056>058-064>065-071>073-077>080-300100-
SOUTHWEST LOWER MICHIGAN

CITY           SKY/WX    TMP DP  RH WIND       PRES   REMARKS
BATTLE CREEK   CLOUDY    77  68  73 S10       29.98F
6HR MIN TEMP:  75; 6HR MAX TEMP:  82; 6HR PCP: TRACE;

BENTON HARBOR  CLOUDY    76  71  85 SE8       29.94R
6HR MIN TEMP:  75; 6HR MAX TEMP:  82; 6HR PCP: TRACE;

BIG RAPIDS     PTCLDY    71  68  90 SE8       29.94F
6HR MIN TEMP:  64; 6HR MAX TEMP:  73; 6HR PCP:  0.12;

COLDWATER      MOCLDY    78  67  69 SE6       29.99S
6HR MIN TEMP:  78; 6HR MAX TEMP:  84;

HOLLAND        CLOUDY    77  71  82 SE9       29.93F
6HR MIN TEMP:  76; 6HR MAX TEMP:  79;

GRAND RAPIDS   CLOUDY    73  71  93 SE7       29.95S
6HR MIN TEMP:  71; 6HR MAX TEMP:  75; 6HR PCP:  0.06;

KALAMAZOO      MOCLDY    76  69  79 S5        29.97S
6HR MIN TEMP:  75; 6HR MAX TEMP:  81; 6HR PCP:  0.01;

MARSHALL       MOCLDY    75  67  77 SE3       29.98S
MUSKEGON       CLOUDY    75  69  81 SE9       29.92F
6HR MIN TEMP:  68; 6HR MAX TEMP:  78; 6HR PCP:  0.02;

$$
MIZ016>042-300100-
NORTHERN LOWER MICHIGAN

CITY           SKY/WX    TMP DP  RH WIND       PRES   REMARKS
ALPENA         MOCLDY    68  61  78 S8        29.96S
6HR MIN TEMP:  60; 6HR MAX TEMP:  70; 6HR PCP: TRACE;

BEAVER ISLAND  CLOUDY    69  66  92 SE6       29.87F
6HR MIN TEMP:  65; 6HR MAX TEMP:  69;

BELLAIRE       PTCLDY    72  63  72 S9        29.89F
6HR MIN TEMP:  72; 6HR MAX TEMP:  78;

CADILLAC       PTCLDY    70  66  88 S10       29.94F
CHARLEVOIX     PTCLDY    73  65  76 SE7       29.92S
6HR MIN TEMP:  66; 6HR MAX TEMP:  77;

FRANKFORT      CLEAR     76  67  74 S12       29.87S
GAYLORD        MOCLDY    68  61  78 S15G23    29.94F
6HR MIN TEMP:  62; 6HR MAX TEMP:  72; 6HR PCP:  0.01;

GRAYLING       MOCLDY    69  63  80 S7        29.96F
6HR MIN TEMP:  66; 6HR MAX TEMP:  74;

HARBOR SPRINGS PTCLDY    73  64  75 S3        29.90S
HOUGHTON LAKE  MOCLDY    68  61  78 S10       29.97F
6HR MIN TEMP:  66; 6HR MAX TEMP:  72;

MANISTEE       PTCLDY    73  66  78 S8G17     29.89F
OSCODA         CLOUDY    69  59  71 S9        29.98S
PELLSTON       PTCLDY    72  66  81 SE6       29.90S
6HR MIN TEMP:  62; 6HR MAX TEMP:  74; 6HR PCP: TRACE;

TRAVERSE CITY  PTCLDY    74  65  73 VRB6      29.88S
6HR MIN TEMP:  74; 6HR MAX TEMP:  80;

$$
MIZ007>008-015-300100-
EASTERN UPPER MICHIGAN

CITY           SKY/WX    TMP DP  RH WIND       PRES   REMARKS
KINROSS        CLOUDY    63  63 100 SE14      29.90S
6HR MIN TEMP:  59; 6HR MAX TEMP:  63; 6HR PCP:  0.67;

MACKINAC ISLAN PTCLDY    63  63  99 E7        29.89S
6HR MIN TEMP:  59; 6HR MAX TEMP:  64; 6HR PCP:  0.01;

NEWBERRY       CLOUDY    62  62  99 SE3       29.87S
S. S. MARIE    CLOUDY    60  58  92 E8        29.91F
6HR MIN TEMP:  59; 6HR MAX TEMP:  60; 6HR PCP:  0.31;

$$
MIZ004>006-011>014-085-300100-
CENTRAL UPPER MICHIGAN

CITY           SKY/WX    TMP DP  RH WIND       PRES   REMARKS
MANISTIQUE     CLOUDY    64  64  98 SE6       29.86S
ESCANABA       CLOUDY    68  64  88 S7        29.83S
6HR MIN TEMP:  64; 6HR MAX TEMP:  68;

MENOMINEE      PTCLDY    72  66  83 S6        29.81S
6HR MIN TEMP:  70; 6HR MAX TEMP:  75;

SAWYER-GWINN   FOG       68  66  94 SW10      29.84R VSB 3/4
$$
MIZ001>003-009>011-084-300100-
WESTERN UPPER MICHIGAN

CITY           SKY/WX    TMP DP  RH WIND       PRES   REMARKS
IRON MOUNTAIN  CLOUDY    70  67  90 CALM      29.82S FOG
6HR MIN TEMP:  64; 6HR MAX TEMP:  70; 6HR PCP: TRACE;

HOUGHTON       FOG       64  62  93 SE5       29.78R VSB 1/2
6HR MIN TEMP:  61; 6HR MAX TEMP:  65; 6HR PCP:  0.14;

COPPER HARBOR    N/A     63  61  93 SW6       29.76F
6HR MIN TEMP:  61; 6HR MAX TEMP:  64; 6HR PCP:  0.02;

$$

ABBREVIATIONS USED IN REMARKS
   TC - TEMPERATURE IN CELSIUS
  WCI - WIND CHILL INDEX
   HX - HEAT INDEX
  VSB - VISIBILITY




USA.gov is the U.S. government's official web portal to all federal, state and local government web resources and services.